Location: Kershaw
(34.5481°N, 80.5823°W)
Time: 10:39:23
(UTC+00:00)

Altair - Pass Details

Date: 12 October 2022
Orbit: 1501 x 1682 km, 47.2° (Epoch: 30 November)

Event Time Altitude Azimuth Distance (km) Brightness Sun altitude
Rises 12:53:46 0° 303° (WNW) 4,837 9.5 16.7°
Reaches altitude 10° 12:56:56 10° 307° (NW) 3,872 9.1 17.3°
Maximum altitude 13:06:47 61° 27° (NNE) 1,855 8.3 19.1°
Drops below altitude 10° 13:16:49 10° 107° (ESE) 3,940 11.7 21.0°
Sets 13:20:04 0° 110° (ESE) 4,926 11.7 21.6°
